Atlanta Fulton, GA

8:10 PM EST on November 13, 2019 (GMT -0500)
Fulton County-Brown

Weather History for KFTY - September, 2019

Change the Weather History Date:

Saturday, September 7, 2019

  Actual Average Record
Temperature  
Mean Temperature 82 °F 75 °F  
Max Temperature 96 °F 86 °F 95 °F (1999)
Min Temperature 67 °F 65 °F 51 °F (2017)
Degree Days  
Heating Degree Days 0 0  
Month to date heating degree days 0 0  
Since 1 July heating degree days 0 0  
Cooling Degree Days 17 10  
Month to date cooling degree days 114 78  
Year to date cooling degree days 1830 1515  
Growing Degree Days 30 (Base 50)    
Moisture  
Dew Point 65 °F    
Average Humidity 63    
Maximum Humidity 87    
Minimum Humidity 39    
Precipitation  
Precipitation 0.00 in 0.13 in 1.88 in (2004)
Month to date precipitation 0.00 0.83  
Year to date precipitation 30.29 36.25  
Sea Level Pressure  
Sea Level Pressure 29.93 in    
Wind  
Wind Speed 4 mph (NW)    
Max Wind Speed 15 mph    
Max Gust Speed 23 mph    
Visibility 10 miles    
Events      
T = Trace of Precipitation, MM = Missing Value Source: NWS Daily Summary

Daily Weather History Graph

Daily Weather History Graph

Search for Another Location

Airport or City:

Astronomy

Sep. 07, 2019 Rise Set
Actual Time 7:15 AM EDT 7:55 PM EDT
Civil Twilight 6:50 AM EDT 8:21 PM EDT
Nautical Twilight 6:20 AM EDT 8:50 PM EDT
Astronomical Twilight 5:50 AM EDT 9:21 PM EDT
Moon 3:57 PM EDT (9/7) 1:19 AM EDT (9/7)
Length of Visible Light 13h 30m
Length of Day
12h 40m
Waxing Gibbous, 65% of the Moon is Illuminated
Sep 7
Waxing Gibbous
Sep 14
Full
Sep 21
Last Quarter
Sep 28
New
Oct 5
First Quarter

Hourly Weather History & Observations

Time (EDT) Temp. Heat Index Dew Point Humidity Pressure Visibility Wind Dir Wind Speed Gust Speed Precip Events Conditions
12:53 AM 75.9 °F - 60.1 °F 58% 29.93 in 10.0 mi Calm Calm - N/A   Clear
1:53 AM 70.0 °F - 61.0 °F 73% 29.94 in 10.0 mi Calm Calm - N/A   Clear
2:53 AM 69.1 °F - 62.1 °F 78% 29.94 in 10.0 mi Calm Calm - N/A   Clear
3:53 AM 66.9 °F - 62.1 °F 84% 29.93 in 10.0 mi Calm Calm - N/A   Clear
4:53 AM 72.0 °F - 62.1 °F 71% 29.92 in 10.0 mi North 3.5 mph - N/A   Clear
5:53 AM 71.1 °F - 62.1 °F 73% 29.93 in 10.0 mi Calm Calm - N/A   Clear
6:53 AM 70.0 °F - 62.1 °F 76% 29.94 in 10.0 mi Calm Calm - N/A   Clear
7:53 AM 73.0 °F - 64.0 °F 73% 29.96 in 10.0 mi Calm Calm - N/A   Clear
8:53 AM 75.9 °F - 66.0 °F 71% 29.97 in 10.0 mi Calm Calm - N/A   Clear
9:53 AM 82.0 °F 84.9 °F 68.0 °F 62% 29.97 in 10.0 mi Calm Calm - N/A   Clear
10:53 AM 84.9 °F 88.8 °F 69.1 °F 59% 29.97 in 10.0 mi NW 5.8 mph - N/A   Clear
11:53 AM 89.1 °F 94.1 °F 70.0 °F 53% 29.96 in 10.0 mi NW 8.1 mph - N/A   Clear
12:53 PM 91.0 °F 95.6 °F 69.1 °F 48% 29.94 in 10.0 mi NNW 10.4 mph - N/A   Mostly Cloudy
1:53 PM 91.9 °F 95.4 °F 66.9 °F 44% 29.93 in 10.0 mi West 8.1 mph 19.6 mph N/A   Scattered Clouds
2:53 PM 93.0 °F 96.4 °F 66.9 °F 42% 29.91 in 10.0 mi West 9.2 mph 18.4 mph N/A   Partly Cloudy
3:53 PM 93.0 °F 95.9 °F 66.0 °F 41% 29.88 in 10.0 mi NW 8.1 mph - N/A   Mostly Cloudy
4:53 PM 95.0 °F 97.9 °F 66.0 °F 38% 29.87 in 10.0 mi North 11.5 mph - N/A   Clear
5:53 PM 93.9 °F 97.0 °F 66.0 °F 40% 29.87 in 10.0 mi WNW 11.5 mph - N/A   Partly Cloudy
6:53 PM 91.9 °F 94.5 °F 66.0 °F 42% 29.88 in 10.0 mi North 6.9 mph - N/A   Clear
7:53 PM 88.0 °F 89.6 °F 64.9 °F 46% 29.89 in 10.0 mi NW 4.6 mph - N/A   Clear
8:53 PM 82.9 °F 85.4 °F 66.9 °F 58% 29.91 in 10.0 mi Calm Calm - N/A   Clear
9:53 PM 82.0 °F 84.1 °F 66.0 °F 58% 29.92 in 10.0 mi NNW 3.5 mph - N/A   Partly Cloudy
10:53 PM 79.0 °F - 64.9 °F 62% 29.94 in 10.0 mi NNW 3.5 mph - N/A   Clear
11:53 PM 78.1 °F - 64.9 °F 64% 29.94 in 10.0 mi Calm Calm - N/A   Clear